Regional Weather Roundup
Issued by NWS

Home | Current Version | Previous Version | Text Only | Print | Product List | Glossary On
Versions: 1 2 3 4 5 6 7 8 9 10 11 12 13 14 15 16 17 18 19 20 21 22 23 24 25 26 27 28 29 30 31 32 33 34 35 36 37 38 39 40 41 42 43 44 45 46 47 48 49 50
000
ASUS46 KPQR 200810
RWROR

OREGON REGIONAL WEATHER ROUNDUP
NATIONAL WEATHER SERVICE PORTLAND OR
1200 AM PST SAT DEC 20 2014

NOTE: "FAIR" INDICATES FEW OR NO CLOUDS BELOW 12,000 FEET WITH
NO SIGNIFICANT WEATHER AND/OR OBSTRUCTIONS TO VISIBILITY.

ORZ001>013-200900-
NORTHWEST OREGON


CITY           SKY/WX    TMP DP  RH WIND       PRES   REMARKS
ASTORIA        RAIN      47  43  86 SE5       29.81F
NEWPORT        RAIN      48  46  93 S9        29.88F
PORTLAND       LGT RAIN  46  45  96 E10       29.91F
VANCOUVER WA   LGT RAIN  47  43  86 E7        29.90F
SCAPPOOSE      LGT RAIN  46  44  93 S5        29.87F
HILLSBORO      LGT RAIN  47  45  93 SE9       29.88F
AURORA         LGT RAIN  47  45  93 SE7       29.91F
MCMINNVILLE    LGT RAIN  48  46  93 S12       29.89F
SALEM          LGT RAIN  48  45  89 S10       29.88F
CORVALLIS      CLOUDY    52  45  76 S8        29.91F
EUGENE         LGT RAIN  48  45  89 SE10      29.91F
$$

ORZ021-028-200900-
SOUTHWEST OREGON


CITY           SKY/WX    TMP DP  RH WIND       PRES   REMARKS
NORTH BEND     CLOUDY    52  52 100 S8        29.93F
BROOKINGS      RAIN      52  52 100 S14G22    30.00F FOG
ROSEBURG       LGT RAIN  49  45  86 S3        29.95F
SEXTON SUMMIT  MIX PCPN  37  37 100 S16G26    29.92S VSB 1/4 WCI  28
MEDFORD        CLOUDY    44  43  96 CALM      30.01R FOG
$$

ORZ014>016-041-200900-
COLUMBIA GORGE


CITY           SKY/WX    TMP DP  RH WIND       PRES   REMARKS
TROUTDALE      LGT RAIN  46  42  86 E10       29.91F
THE DALLES     CLOUDY    41  39  93 CALM      29.97F
$$

ORZ029>031-041-044-049-050-061>064-502-503-505>511-200900-
EASTERN OREGON


CITY           SKY/WX    TMP DP  RH WIND       PRES   REMARKS
REDMOND        CLOUDY    39  34  82 S8        29.92F WCI  33
BEND           CLOUDY    37  34  87 S8        29.94F WCI  31
PRINEVILLE     CLOUDY    41  34  75 S6        29.94F
KLAMATH FALLS  LGT RAIN  38  35  89 S9        29.99F WCI  31
LAKEVIEW       CLOUDY    36  34  93 S13       30.04S WCI  27
HERMISTON      CLOUDY    37  35  92 CALM      29.95F
PENDLETON      CLOUDY    38  33  82 SE5       29.94F WCI  34
JOHN DAY       CLOUDY    36  32  84 E7        29.99F WCI  31
MEACHAM        CLOUDY    33  31  92 CALM      29.95F
LA GRANDE      CLOUDY    41  30  65 SE9G17    30.00S
BAKER CITY     CLOUDY    32 N/A N/A NE7       30.02  WCI  26
BURNS          CLOUDY    33  31  92 NE3       30.02F
ROME             N/A     38  32  79 S9        30.03F WCI  31
ONTARIO        CLOUDY    35  33  92 CALM      30.09F FOG
$$



USA.gov is the U.S. government's official web portal to all federal, state and local government web resources and services.